Location: Castiglione Fibocchi
(43.5333°N, 11.7667°E)
Time: 14:05:14
(UTC+00:00)

Cosmos 2151 - Pass Details

Date: 15 August 2020
Orbit: 582 x 600 km, 82.5° (Epoch: 24 September)

Event Time Altitude Azimuth Distance (km) Brightness Sun altitude
Rises 03:44:57 0° 357° (N) 2,832 6.8 -6.4°
Reaches altitude 10° 03:47:14 10° 3° (N) 1,929 6.0 -6.0°
Maximum altitude 03:51:21 47° 78° (ENE) 792 4.3 -5.3°
Drops below altitude 10° 03:55:27 10° 153° (SSE) 1,924 5.6 -4.6°
Sets 03:57:43 0° 159° (SSE) 2,824 6.4 -4.3°
